Simultaneous Nadir Overpasses (SNOs) Predictions

Prediction of SNOs between NOAA-19 and TERRA Satellite Orbit:

Table of predicted SNOs for the next 14.0 days since TLE Epoch: 9/7/2012
Index Date (NOAA-19) Time (NOAA-19) NOAA-19 Lat,Lon Date (TERRA) Time (TERRA) TERRA Lat,Lon Distance(km) Time Diff (sec)
1 09/08/2012 13:31:46 -69.19, 156.28 09/08/2012 13:32:58 -69.16, 156.29 3.14 72
2 09/08/2012 14:22:52 69.02, -36.27 09/08/2012 14:22:26 69.00, -36.27 2.93 26
3 09/10/2012 18:16:22 -69.16, 85.17 09/10/2012 18:17:15 -69.15, 85.21 1.71 53
4 09/10/2012 19:07:28 69.00,-107.40 09/10/2012 19:06:43 68.98,-107.37 2.81 45
5 09/12/2012 23:00:57 -69.10, 14.11 09/12/2012 23:01:32 -69.12, 14.10 3.12 35
6 09/12/2012 23:52:03 68.96,-178.47 09/12/2012 23:51:00 68.95,-178.47 0.47 63
7 09/15/2012 02:54:57 70.20, 134.06 09/15/2012 02:56:03 70.07, 136.67 99.80 66
8 09/15/2012 03:45:33 -69.11, -57.04 09/15/2012 03:45:49 -69.08, -57.03 2.77 16
9 09/15/2012 04:36:33 68.67, 110.78 09/15/2012 04:35:21 68.68, 110.12 26.99 72
10 09/17/2012 07:39:20 69.56, 63.89 09/17/2012 07:40:30 69.45, 64.76 36.10 70
11 09/17/2012 08:30:08 -69.08,-128.15 09/17/2012 08:30:05 -69.08,-128.10 2.12 3
12 09/17/2012 09:20:55 67.97, 40.56 09/17/2012 09:19:49 68.01, 38.24 96.95 66
13 09/19/2012 12:23:47 69.16, -6.66 09/19/2012 12:24:51 69.16, -6.70 1.41 64
14 09/19/2012 13:14:42 -69.02, 160.79 09/19/2012 13:14:22 -69.00, 160.74 3.07 20




NCC Satellite Simultaneous Nadir Overpasses (SNOs) Prediction Service
